Regional Weather Roundup
Issued by NWS

Home | Current Version | Previous Version | Text Only | Print | Product List | Glossary On
Versions: 1 2 3 4 5 6 7 8 9 10 11 12 13 14 15 16 17 18 19 20 21 22 23 24 25 26 27 28 29 30 31 32 33 34 35 36 37 38 39 40 41 42 43 44 45 46 47 48 49 50
000
ASUS43 KTOP 300508
RWRKS

WEATHER ROUNDUP FOR KANSAS
NATIONAL WEATHER SERVICE GOODLAND KS
1200 AM CDT TUE SEP 30 2014

NOTE:  "FAIR" INDICATES FEW OR NO CLOUDS BELOW 12,000 FEET WITH NO
SIGNIFICANT WEATHER AND/OR OBSTRUCTIONS TO VISIBILITY.

KSZ001>006-013>018-027>032-041>047-300600-
NORTHWEST KANSAS

CITY           SKY/WX    TMP DP  RH WIND       PRES   REMARKS
GOODLAND       MOCLDY    56  54  93 S13       29.83F
HAYS           CLOUDY    68  52  56 SE13      29.90S
HILL CITY      CLOUDY    72  54  53 S13G25    29.87S
RUSSELL        CLOUDY    68  56  65 SE13      29.89S
$$

KSZ061>065-074>080-084>089-300600-
SOUTHWEST KANSAS

CITY           SKY/WX    TMP DP  RH WIND       PRES   REMARKS
DODGE CITY     CLOUDY    70  52  52 S16       29.91F
ELKHART          N/A     63  57  81 S13         N/A
GARDEN CITY    CLOUDY    63  57  81 S7        29.88F
GREAT BEND     CLOUDY    68  54  60 SE14      29.91F
LIBERAL        CLOUDY    66  55  68 SE23G31   29.90F
PRATT          MOCLDY    70  54  56 S8        29.94S
$$

KSZ066>073-081>083-090>101-300600-
SOUTHEAST KANSAS

CITY           SKY/WX    TMP DP  RH WIND       PRES   REMARKS
CHANUTE        CLEAR     64  60  87 E6        29.95F
COFFEYVILLE    CLEAR     63  60  90 CALM      29.95R
HUTCHINSON     CLOUDY    69  57  65 SE7       29.94R
MEDICINE LODGE   N/A     71  57  61 S9        29.92R
NEWTON         MOCLDY    66  55  68 SE8       29.97R
PARSONS        CLEAR     60  59  96 CALM      29.96S
WICHITA INTL   CLOUDY    71  58  63 S10       29.94R
WICHITA JABRA  MOCLDY    68  59  73 SE7       29.95R
WICHITA MCCONL MOCLDY    70  59  68 SE8       29.95R
WINFIELD       PTCLDY    67  59  75 SE6       29.95S
$$

KSZ007>012-019>026-033>040-048>060-102>105-300600-
NORTHEAST KANSAS

CITY           SKY/WX    TMP DP  RH WIND       PRES   REMARKS
CONCORDIA      MOCLDY    69  59  70 S12       29.93R
EMPORIA        CLEAR     64  60  87 S8        29.95S
LAWRENCE       CLEAR     62  58  86 E3        29.96R
MANHATTAN      PTCLDY    68  59  73 CALM      29.94R
MARYSVILLE     MOCLDY    64  59  82 SE5       29.95R
OLATHE IND     CLEAR     66  59  78 SE6       29.97R
OLATHE EXE     CLEAR     67  60  78 S3        29.96S
SALINA         MOCLDY    69  59  70 SE8       29.93R
TOPEKA BILLARD CLEAR     67  63  87 CALM      29.95R
TOPEKA FORBES  CLEAR     64  58  80 SE3       29.95R
$$


USA.gov is the U.S. government's official web portal to all federal, state and local government web resources and services.